Regional Weather Roundup
Issued by NWS State College, PA

Home | Current Version | Previous Version | Text Only | Print | Product List | Glossary On
Versions: 1 2 3 4 5 6 7 8 9 10 11 12 13 14 15 16 17 18 19 20 21 22 23 24 25 26 27 28 29 30 31 32 33 34 35 36 37 38 39 40 41 42 43 44 45 46 47 48 49 50
000
ASUS41 KCTP 251010
RWRCTP

REGIONAL WEATHER ROUNDUP
NATIONAL WEATHER SERVICE STATE COLLEGE PA
600 AM EDT MON SEP 25 2017

Note: "fair" indicates few or no clouds below 12,000 feet with no
significant weather and/or obstructions to visibility.

* = STATION THAT DOES NOT REPORT PRECIPITATION /E.G. RAIN...SNOW...ETC/
    THUNDER OR FOG.

PAZ002>004-007>009-013>016-020>023-029>032-251100-
WESTERN PENNSYLVANIA

CITY           SKY/WX    TMP DP  RH WIND       PRES   REMARKS
ERIE           PTCLDY    71  64  78 S9        30.07S
MEADVILLE      CLOUDY    69  64  84 E3        30.11S
FRANKLIN*      CLOUDY    63  61  93 E3        30.13S
NEW CASTLE     FAIR      63  63 100 CALM      30.10S FOG
BEAVER COUNTY  NOT AVBL
BUTLER*        PTCLDY    63  62  97 NE5       30.11R
PITTSBURGH INT MOCLDY    66  62  87 CALM      30.09R
PITTSBURGH     PTCLDY    68  62  81 CALM      30.09R
INDIANA*       CLEAR     63  63 100 CALM      30.14R
LATROBE        PTCLDY    63  63 100 CALM      30.10S FOG
WASHINGTON CO* CLOUDY    59  57  94 CALM      30.09S VSB 3/4
$$

PAZ004>006-010>012-017>019-024>028-033>037-041-042-045-046-049>053-251100-
CENTRAL PENNSYLVANIA

CITY           SKY/WX    TMP DP  RH WIND       PRES   REMARKS
BRADFORD       CLEAR     58  58 100 CALM      30.16R FOG
DUBOIS         CLEAR     64  60  87 NE3       30.13R
CLEARFIELD     CLEAR     60  59  96 N3        30.13R FOG
JOHNSTOWN      CLEAR     66  62  87 CALM      30.14S
ALTOONA        CLEAR     61  61 100 CALM      30.12S FOG
STATE COLLEGE  MOCLDY    63  63 100 CALM      30.11S FOG
WILLIAMSPORT   CLEAR     66  64  93 CALM      30.08S FOG
SELINSGROVE    CLEAR     62  62 100 CALM      30.08S FOG
FT INDIANTOWN  CLEAR     68  67  99 E3        30.02S
CAPITAL CITY   LGT RAIN  67  63  87 W3        30.05R
HARRISBURG     PTCLDY    71  69  93 NW7       30.04R
YORK           CLEAR     60  60 100 CALM      30.05S FOG
$$

PAZ038>040-043-044-047-048-054-055-060>062-067>071-251100-
EASTERN PENNSYLVANIA

CITY           SKY/WX    TMP DP  RH WIND       PRES   REMARKS
SCRANTON       CLEAR     65  63  93 E5        30.10R
MOUNT POCONO   CLEAR     63  63 100 CALM      30.13R
ALLENTOWN      CLEAR     65  62  90 CALM      30.06R FOG
QUAKERTOWN*    SUNNY     63  63 100 CALM      30.06R
READING        CLEAR     67  67 100 NW5       30.04S
LANCASTER      FOG       65  65 100 CALM      30.05R VSB 1
COATESVILLE    SUNNY     70  64  83 CALM      30.07R
POTTSTOWN      CLEAR     64  64 100 CALM      30.06R FOG
BLUE BELL        N/A     61  61 100 CALM      30.06R VSB 1/2
DOYLESTOWN     CLEAR     65  64  97 CALM      30.04R
WILLOW GROVE   NOT AVBL
NORTH PHILA    CLEAR     69  66  90 CALM      30.05R
PHILADELPHIA   PTCLDY    70  67  90 CALM      30.03R
$$




USA.gov is the U.S. government's official web portal to all federal, state and local government web resources and services.